This is the latest recevied weather packets stored in our database for station/object AD5L. If no packets are shown the sender has not sent any weather packets the latest 1 day(s).
| Time | Temp. | Humidity | Pressure | Rain* | Wind** | Luminosity | Snow |
|---|---|---|---|---|---|---|---|
| 1778012004 | 30.56° C | 69% | 1007 hPa | 0 mm | 2.24 m/s, 217° | - | - |
| 1778011413 | 30.56° C | 68% | 1007.1 hPa | 0 mm | 2.24 m/s, 156° | - | - |
| 1778010804 | 30° C | 71% | 1007.1 hPa | 0 mm | 2.24 m/s, 130° | - | - |
| 1778010216 | 29.44° C | 70% | 1007.4 hPa | 0 mm | 3.58 m/s, 231° | - | - |
| 1778009607 | 29.44° C | 72% | 1007.5 hPa | 0 mm | 2.24 m/s, 157° | - | - |
| 1778009017 | 29.44° C | 71% | 1007.6 hPa | 0 mm | 2.24 m/s, 206° | - | - |
| 1778008408 | 28.89° C | 73% | 1007.7 hPa | 0 mm | 2.68 m/s, 158° | - | - |
| 1778007818 | 28.89° C | 72% | 1007.7 hPa | 0 mm | 2.24 m/s, 153° | - | - |
| 1778007209 | 28.33° C | 72% | 1007.7 hPa | 0 mm | 3.13 m/s, 169° | - | - |
| 1778006003 | 27.78° C | 74% | 1008.1 hPa | 0 mm | 2.24 m/s, 250° | - | - |
| 1778005422 | 27.78° C | 74% | 1008.3 hPa | 0 mm | 2.68 m/s, 253° | - | - |
| 1778004805 | 27.22° C | 77% | 1008.5 hPa | 0 mm | 1.34 m/s, 201° | - | - |
| 1778004216 | 27.22° C | 77% | 1008.5 hPa | 0 mm | 2.24 m/s, 218° | - | - |
| 1778003608 | 26.67° C | 79% | 1008.6 hPa | 0 mm | 2.24 m/s, 207° | - | - |
| 1778003017 | 26.11° C | 80% | 1008.8 hPa | 0 mm | 3.13 m/s, 243° | - | - |
| 1778002408 | 25.56° C | 81% | 1008.9 hPa | 0 mm | 3.13 m/s, 238° | - | - |
| 1778001820 | 25.56° C | 82% | 1008.8 hPa | 0 mm | 2.68 m/s, 240° | - | - |
| 1778001210 | 25° C | 83% | 1008.9 hPa | 0 mm | 2.24 m/s, 155° | - | - |
| 1778000602 | 25° C | 84% | 1008.9 hPa | 0 mm | 2.68 m/s, 221° | - | - |
| 1778000013 | 24.44° C | 85% | 1008.9 hPa | 0 mm | 1.34 m/s, 250° | - | - |
| 1777999403 | 24.44° C | 85% | 1008.9 hPa | 0 mm | 1.34 m/s, 222° | - | - |
| 1777998810 | 24.44° C | 86% | 1008.9 hPa | 0 mm | 1.34 m/s, 231° | - | - |
| 1777998202 | 23.89° C | 87% | 1009 hPa | 0 mm | 1.79 m/s, 139° | - | - |
| 1777997614 | 23.33° C | 87% | 1009 hPa | 0 mm | 1.34 m/s, 212° | - | - |
| 1777997025 | 23.33° C | 87% | 1008.9 hPa | 0 mm | 2.24 m/s, 146° | - | - |
* Rain latest hour (hover to see other rain measurements)
** Current wind speed in m/s (hover to see current wind gust speed)